This is the latest recevied weather packets stored in our database for station/object N1TKS. If no packets are shown the sender has not sent any weather packets the latest 10 day(s).
| Time | Temp. | Humidity | Pressure | Rain* | Wind** | Luminosity | Snow |
|---|---|---|---|---|---|---|---|
| 1777176559 | 5.56° C | 90% | 1019 hPa | 0 mm | - | - | - |
| 1777175961 | 5.56° C | 90% | 1019 hPa | 3.05 mm | - | - | - |
| 1777175660 | 5.56° C | 90% | 1018.9 hPa | 3.05 mm | - | - | - |
| 1777175362 | 5° C | 90% | 1018.8 hPa | 2.79 mm | - | - | - |
| 1777175059 | 5.56° C | 90% | 1019 hPa | 3.05 mm | - | - | - |
| 1777174867 | 5° C | 90% | 1018.9 hPa | 4.06 mm | - | - | - |
| 1777174759 | 5.56° C | 90% | 1018.9 hPa | 3.3 mm | - | - | - |
| 1777174158 | 5° C | 90% | 1019 hPa | 3.56 mm | - | - | - |
| 1777173859 | 5° C | 90% | 1018.9 hPa | 3.81 mm | - | - | - |
| 1777173559 | 5° C | 90% | 1018.9 hPa | 4.06 mm | - | - | - |
| 1777173261 | 5° C | 90% | 1019 hPa | 4.06 mm | - | - | - |
| 1777172960 | 5° C | 90% | 1019.2 hPa | 3.81 mm | - | - | - |
| 1777172951 | 5° C | 90% | 1019.2 hPa | 3.56 mm | - | - | - |
| 1777172658 | 5° C | 90% | 1019.2 hPa | 3.81 mm | - | - | - |
| 1777172426 | 5° C | 90% | 1019.4 hPa | 3.56 mm | - | - | - |
| 1777172359 | 5° C | 90% | 1019.4 hPa | 3.56 mm | - | - | - |
| 1777172060 | 5° C | 90% | 1019.2 hPa | 3.56 mm | - | - | - |
| 1777171759 | 5° C | 90% | 1019.2 hPa | 3.56 mm | - | - | - |
| 1777171494 | 5° C | 90% | 1019.4 hPa | 3.56 mm | - | - | - |
| 1777171459 | 5° C | 90% | 1019.4 hPa | 3.56 mm | - | - | - |
| 1777170864 | 5° C | 90% | 1019.3 hPa | 3.56 mm | - | - | - |
| 1777170560 | 5° C | 90% | 1019.3 hPa | 3.56 mm | - | - | - |
| 1777170314 | 5° C | 90% | 1019.5 hPa | 3.81 mm | - | - | - |
| 1777170260 | 5° C | 90% | 1019.5 hPa | 3.81 mm | - | - | - |
| 1777169660 | 5° C | 90% | 1019.3 hPa | 4.06 mm | - | - | - |
* Rain latest hour (hover to see other rain measurements)
** Current wind speed in m/s (hover to see current wind gust speed)